Wind_Speed
23 24 25 25 25 25 25 25 26 24 25 24 24 25 25 26 26 27 27 28 29 30 31 33 33 34 35 36 37 39 40 41 42 43 44 45 46 46 47 47 48 48 48 47
23 24 25 25 24 24 24 24 24 24 24 23 24 25 26 26 26 26 27 27 28 29 30 31 32 33 35 36 37 38 39 40 41 43 44 45 46 47 47 48 48 48 48 48
24 24 25 25 24 24 24 24 24 23 22 22 23 25 26 27 27 27 27 28 29 30 31 32 32 33 33 34 36 37 38 39 40 41 43 44 45 46 46 47 47 47 47 47
25 25 25 24 23 23 24 23 23 23 23 22 23 24 25 26 27 28 29 29 30 30 31 32 32 33 33 34 35 36 36 37 38 39 41 42 43 44 44 44 44 45 46 46
25 26 25 23 22 22 23 22 22 23 23 23 24 24 25 26 27 28 28 29 29 30 30 31 32 33 34 34 35 35 36 36 37 37 38 39 40 40 41 42 43 43 44 44
23 24 24 21 21 21 21 21 21 22 22 23 24 25 25 26 27 28 28 29 29 29 29 30 30 32 33 34 34 35 35 35 36 36 37 37 38 39 39 40 41 42 42 43
23 23 22 20 21 21 21 20 20 20 21 22 23 24 24 25 26 27 27 28 28 29 28 29 30 31 32 32 33 34 35 35 35 35 36 36 36 37 37 38 39 39 40 41
21 22 20 19 20 21 21 20 20 21 21 22 23 23 23 24 24 25 26 27 27 27 28 28 29 30 31 31 32 33 34 34 34 35 36 36 35 36 36 37 37 38 39 39
21 20 20 20 20 20 19 20 20 21 21 22 22 22 23 23 23 24 25 26 26 27 27 28 29 29 30 31 31 31 31 33 34 34 34 34 34 34 35 35 36 36 37 37
20 19 19 19 20 19 20 20 21 21 22 22 23 23 23 23 23 24 25 26 26 27 27 28 29 30 31 31 31 31 31 32 32 33 33 33 33 33 33 34 34 35 35 36
19 19 19 19 19 20 20 20 20 21 22 22 23 23 22 23 23 24 25 26 26 27 27 28 29 29 30 31 31 32 32 32 32 32 32 32 32 33 33 34 34 34 34 34
19 19 19 18 20 20 20 20 20 21 22 23 23 23 23 23 23 24 25 25 26 27 27 28 28 28 29 30 30 30 30 31 32 32 32 32 32 33 33 33 33 33 34 34
19 20 20 20 20 21 21 21 22 23 23 23 23 23 23 23 24 25 25 26 27 27 27 28 28 29 28 29 29 28 29 29 30 31 31 32 32 32 32 33 33 33 33 33
20 20 20 20 21 21 22 22 23 24 25 24 24 24 24 24 25 25 26 27 28 27 27 27 28 27 27 28 29 29 29 29 29 30 30 31 31 31 31 31 31 31 32 32
21 21 21 20 21 22 22 23 23 24 24 24 24 24 24 25 25 26 27 28 28 27 27 27 27 27 26 27 28 28 28 29 29 29 30 30 30 30 29 29 30 30 31 32
21 22 22 22 22 23 23 23 23 23 24 24 24 24 25 25 26 26 27 27 27 27 26 26 26 26 25 25 26 26 27 27 27 28 28 28 28 29 29 30 30 31 31 32
21 22 22 22 22 23 23 23 23 23 23 23 24 25 25 25 25 26 26 27 26 26 25 25 25 25 24 25 25 25 26 26 26 26 26 26 27 28 29 30 30 30 30 30
22 22 22 22 22 23 23 22 22 22 22 23 23 24 23 24 24 25 25 25 25 25 25 25 25 25 25 25 25 25 24 24 25 25 25 26 26 27 28 28 28 28 29 30
22 22 22 23 23 23 22 22 22 22 22 23 22 22 22 23 24 24 25 25 25 25 25 26 25 25 24 24 24 24 24 24 24 24 25 25 26 26 26 26 26 27 28 28
22 22 22 22 22 22 22 22 23 22 22 22 22 22 23 24 24 25 25 25 25 25 25 25 25 24 23 24 23 23 23 23 24 24 24 25 25 25 25 25 25 25 25 25
21 21 21 22 22 22 22 23 23 22 22 22 22 22 23 23 24 25 25 25 25 25 25 25 24 24 24 24 24 23 23 23 23 23 24 24 24 25 24 24 24 23 23 22
20 21 21 21 22 22 22 22 22 22 23 23 23 23 23 24 24 25 25 25 25 25 24 24 24 24 24 24 24 24 24 24 24 24 24 24 24 24 24 23 23 22 21 21
20 20 21 21 21 21 22 22 22 22 23 23 23 24 25 25 25 25 24 24 24 24 25 24 24 24 24 24 24 24 24 24 24 24 24 24 24 24 23 23 22 21 20 20
20 20 20 20 20 20 21 22 22 22 23 24 24 25 25 25 25 25 25 25 24 24 25 25 24 24 23 23 23 24 24 24 24 24 24 24 23 22 22 21 21 20 19 19
19 19 20 20 21 21 21 21 22 23 23 24 25 26 26 26 25 25 25 25 25 24 24 24 24 23 23 23 23 24 24 23 23 23 23 22 22 22 21 21 20 20 20 19
20 20 21 21 21 21 21 22 23 23 24 24 25 26 26 26 26 26 25 25 25 25 25 24 23 23 23 23 24 24 24 24 24 23 22 22 22 22 22 21 21 21 20 20
20 20 21 21 21 21 22 22 23 23 24 24 25 25 25 25 25 25 25 25 25 25 24 23 22 22 23 23 23 24 24 24 23 23 23 22 22 22 22 21 21 21 20 20
Wind_Direction
272 272 271 271 270 268 268 269 271 273 272 273 273 271 270 270 271 271 271 270 269 268 268 266 265 263 263 263 262 262 263 263 264 264 264 264 265 265 265 265 265 265 266 266
272 273 271 270 270 270 269 270 272 274 273 272 272 270 270 270 271 271 272 273 273 271 270 269 267 266 265 264 264 264 264 265 265 265 265 265 266 266 266 266 266 266 266 266
271 271 270 271 273 273 272 273 273 274 275 273 272 272 272 272 273 273 274 274 274 273 271 270 269 267 267 266 265 265 266 266 266 266 266 267 267 268 267 267 266 266 266 266
270 270 270 275 273 272 271 271 271 272 274 275 275 274 274 274 275 275 276 275 273 273 273 272 271 269 268 268 267 267 267 267 268 268 269 268 268 268 268 267 267 267 266 266
270 271 273 273 274 272 271 271 273 274 275 276 278 277 277 277 277 277 277 277 276 275 275 274 273 271 268 268 269 269 269 269 269 270 270 270 269 269 269 269 268 268 267 267
272 272 273 275 273 273 272 272 274 276 277 279 281 281 281 282 281 280 279 278 278 278 277 276 275 274 270 269 270 271 271 270 271 271 271 271 271 271 271 271 270 268 268 268
273 273 274 276 275 274 274 275 277 278 280 284 286 286 286 285 283 281 280 280 280 280 280 279 278 276 273 272 272 272 272 271 271 272 272 273 273 274 273 272 271 270 269 269
273 274 275 273 272 273 275 276 279 281 283 286 288 289 288 287 285 284 283 283 283 284 284 283 281 279 275 274 275 274 274 273 272 272 273 274 274 275 275 274 272 271 270 270
273 275 271 269 270 274 276 277 281 283 287 290 292 292 292 290 288 288 286 286 286 286 285 285 283 282 279 278 278 278 277 275 274 274 273 273 274 275 276 275 274 273 271 270
271 272 269 269 271 272 275 279 283 286 288 291 294 295 294 292 291 291 289 288 287 287 286 286 285 284 282 280 278 278 277 278 277 276 275 276 277 277 277 276 275 274 272 272
270 269 268 270 271 270 273 278 282 286 289 291 294 296 296 296 296 294 291 291 291 290 290 288 287 286 285 282 280 279 278 278 276 276 277 277 277 278 278 277 276 275 274 273
272 269 269 268 270 271 274 279 285 289 290 291 294 295 296 296 297 296 294 294 294 293 292 290 289 288 287 284 283 281 280 278 277 277 277 276 277 278 279 279 277 275 275 275
272 270 270 270 271 273 277 281 286 289 291 291 291 294 296 297 297 297 297 298 298 297 294 292 291 290 288 286 286 285 283 281 279 278 277 278 279 279 280 280 278 276 276 276
274 272 272 271 272 275 279 282 286 289 291 290 290 292 295 297 297 298 298 298 300 299 298 296 294 293 290 288 287 287 286 284 282 281 279 279 280 281 281 279 278 276 277 277
274 273 273 273 272 276 280 284 287 289 290 290 291 292 294 296 298 298 298 298 299 299 299 299 299 297 294 290 288 287 286 285 283 281 281 280 281 282 282 281 278 276 276 277
276 275 274 274 274 276 280 284 287 288 290 290 291 292 293 295 297 299 299 299 301 301 300 300 300 300 297 293 290 288 287 286 285 284 282 282 282 282 282 282 281 279 278 277
277 276 275 274 275 276 280 283 286 289 290 290 291 292 293 294 296 298 300 301 302 302 302 302 301 300 297 295 294 293 291 289 287 286 286 286 286 286 285 283 282 280 279 278
279 278 277 277 277 277 279 282 286 288 290 290 292 293 294 296 298 301 302 303 304 304 304 304 302 300 299 296 294 294 293 291 290 288 288 288 289 289 287 285 283 281 279 279
281 281 280 279 277 277 280 283 286 288 289 290 292 295 297 299 300 300 301 303 303 303 304 304 302 300 299 299 297 295 294 293 292 290 289 289 290 292 291 290 287 284 282 280
283 282 280 278 276 278 281 283 285 287 288 289 292 295 297 300 301 301 301 301 302 304 305 304 302 300 301 301 299 298 297 295 294 293 292 290 290 293 293 292 289 287 285 282
282 281 280 277 277 279 281 282 284 286 288 290 292 295 298 301 302 302 301 301 301 303 305 304 302 301 300 300 299 299 299 298 297 296 295 293 292 293 294 293 290 288 286 285
281 283 283 281 279 280 282 283 283 285 287 290 293 296 298 300 302 303 302 301 301 302 303 303 302 300 300 299 299 299 298 298 298 297 297 295 294 293 293 292 291 289 287 286
282 284 285 285 283 283 283 283 284 285 287 290 293 296 298 299 301 302 303 303 302 302 302 303 303 302 301 301 300 300 300 298 297 297 297 296 294 293 292 292 291 289 288 286
283 285 287 287 286 285 284 285 286 287 288 290 293 295 298 299 300 300 301 302 301 302 303 304 305 304 303 303 303 302 302 301 300 299 298 298 296 293 291 290 289 287 287 286
284 287 290 291 290 288 287 286 286 288 290 291 293 296 297 298 299 299 299 299 301 302 303 304 304 303 302 302 303 304 305 305 305 304 301 299 297 294 291 289 287 286 285 284
285 287 290 293 292 290 289 288 288 289 290 292 294 296 297 298 298 298 298 298 300 302 303 304 303 302 301 301 302 303 304 305 306 306 303 300 298 296 294 291 288 286 283 282
286 288 291 293 293 292 291 291 291 291 291 293 295 296 297 298 298 298 298 299 300 302 302 302 303 303 304 303 302 303 304 306 305 305 304 303 300 298 296 292 289 286 283 281
Height
5614 5613 5613 5612 5612 5611 5610 5610 5609 5610 5609 5610 5608 5607 5607 5606 5606 5605 5605 5605 5605 5604 5604 5604 5605 5605 5605 5606 5606 5607 5608 5608 5609 5609 5609 5609 5609 5609 5609 5609 5610 5609 5609 5609
5606 5606 5604 5604 5604 5604 5603 5602 5602 5601 5602 5602 5600 5599 5599 5598 5598 5597 5596 5596 5595 5595 5595 5595 5595 5595 5595 5595 5595 5595 5595 5596 5596 5596 5596 5596 5596 5596 5595 5595 5595 5595 5595 5594
5599 5598 5596 5596 5598 5597 5596 5595 5595 5594 5595 5594 5593 5591 5591 5590 5589 5588 5588 5587 5586 5585 5585 5585 5584 5584 5584 5584 5584 5584 5584 5584 5584 5583 5583 5583 5582 5582 5582 5581 5581 5580 5580 5580
5590 5590 5589 5593 5590 5589 5588 5588 5587 5587 5587 5586 5585 5584 5583 5582 5581 5580 5579 5578 5577 5576 5575 5574 5574 5573 5573 5573 5572 5572 5572 5572 5571 5571 5570 5570 5569 5568 5568 5567 5567 5566 5566 5566
5582 5581 5581 5584 5583 5582 5581 5581 5581 5579 5579 5578 5577 5576 5574 5573 5572 5571 5570 5568 5567 5566 5565 5564 5563 5562 5562 5562 5561 5561 5560 5560 5559 5558 5557 5557 5556 5555 5555 5554 5554 5554 5553 5553
5575 5574 5574 5578 5576 5575 5575 5574 5574 5572 5572 5571 5569 5568 5567 5565 5563 5561 5560 5559 5558 5556 5555 5554 5553 5551 5551 5551 5550 5549 5549 5548 5547 5546 5545 5544 5543 5543 5542 5542 5541 5541 5540 5540
5568 5566 5567 5569 5568 5567 5568 5569 5567 5566 5565 5563 5561 5560 5559 5556 5554 5552 5551 5550 5549 5547 5546 5544 5542 5541 5540 5540 5539 5538 5537 5536 5535 5534 5534 5533 5532 5531 5530 5529 5529 5528 5528 5528
5561 5560 5563 5562 5561 5561 5561 5561 5560 5558 5557 5556 5554 5552 5550 5548 5546 5544 5543 5541 5539 5538 5536 5535 5533 5531 5530 5529 5528 5527 5526 5525 5524 5523 5522 5521 5520 5519 5518 5517 5516 5516 5515 5515
5556 5557 5556 5554 5553 5553 5553 5553 5552 5551 5550 5548 5546 5545 5542 5540 5538 5536 5535 5533 5531 5529 5527 5525 5523 5521 5520 5519 5517 5516 5515 5514 5513 5512 5510 5509 5509 5508 5506 5505 5504 5504 5503 5503
5549 5549 5548 5547 5547 5547 5546 5546 5545 5544 5542 5541 5539 5537 5535 5532 5530 5528 5527 5525 5523 5521 5519 5516 5514 5512 5510 5508 5507 5505 5504 5503 5502 5501 5500 5498 5497 5496 5495 5494 5493 5492 5492 5491
5542 5542 5542 5541 5541 5540 5540 5539 5538 5537 5535 5533 5531 5529 5527 5525 5523 5521 5519 5517 5514 5512 5510 5507 5505 5502 5500 5498 5497 5495 5494 5493 5492 5490 5489 5488 5487 5486 5485 5484 5482 5482 5481 5480
5536 5536 5535 5535 5534 5533 5533 5532 5531 5530 5528 5526 5524 5522 5520 5518 5516 5513 5511 5509 5506 5503 5500 5498 5495 5493 5490 5488 5486 5485 5484 5482 5481 5480 5479 5478 5477 5475 5473 5473 5471 5470 5470 5469
5529 5529 5528 5528 5527 5526 5526 5525 5524 5522 5521 5519 5517 5515 5513 5510 5508 5506 5503 5501 5498 5495 5492 5489 5486 5483 5481 5479 5477 5475 5474 5472 5471 5470 5469 5468 5466 5465 5463 5462 5460 5459 5459 5458
5522 5522 5521 5521 5520 5520 5519 5518 5517 5515 5513 5511 5509 5507 5505 5503 5501 5498 5495 5493 5489 5486 5483 5480 5477 5474 5472 5470 5468 5466 5464 5462 5461 5460 5459 5457 5456 5455 5453 5452 5450 5449 5448 5447
5515 5515 5515 5514 5513 5512 5511 5510 5509 5507 5505 5504 5502 5500 5498 5496 5493 5491 5488 5485 5482 5478 5475 5472 5469 5466 5463 5461 5459 5457 5455 5453 5451 5450 5449 5447 5446 5445 5443 5442 5441 5440 5438 5437
5509 5508 5507 5506 5506 5505 5504 5503 5502 5500 5498 5496 5494 5493 5490 5488 5486 5483 5480 5477 5474 5470 5467 5464 5461 5458 5455 5453 5450 5448 5446 5444 5442 5441 5439 5438 5436 5435 5434 5432 5431 5429 5428 5427
5501 5500 5500 5499 5498 5497 5496 5495 5494 5492 5490 5489 5487 5485 5483 5480 5478 5475 5472 5469 5466 5463 5460 5457 5454 5451 5448 5445 5443 5440 5438 5436 5434 5432 5431 5429 5427 5426 5424 5422 5421 5419 5418 5417
5494 5493 5492 5492 5490 5490 5489 5487 5486 5485 5483 5482 5480 5478 5475 5473 5471 5468 5465 5461 5458 5455 5452 5449 5446 5443 5440 5438 5435 5433 5430 5428 5426 5424 5422 5421 5419 5417 5414 5413 5411 5410 5408 5407
5486 5486 5485 5484 5483 5482 5481 5480 5479 5478 5476 5474 5473 5471 5468 5466 5463 5460 5457 5454 5452 5449 5445 5442 5439 5436 5433 5430 5428 5425 5423 5421 5419 5417 5414 5412 5410 5408 5406 5404 5402 5400 5399 5398
5479 5478 5477 5476 5476 5475 5474 5473 5472 5471 5469 5467 5465 5463 5461 5459 5456 5453 5450 5448 5445 5442 5438 5435 5432 5429 5427 5424 5421 5419 5416 5414 5412 5409 5407 5404 5402 5400 5398 5396 5394 5392 5391 5389
5473 5471 5470 5470 5469 5468 5467 5466 5465 5463 5462 5460 5458 5456 5454 5452 5449 5446 5443 5441 5437 5434 5431 5428 5425 5423 5420 5417 5415 5412 5409 5407 5404 5402 5399 5397 5395 5393 5390 5388 5386 5385 5383 5382
5466 5465 5464 5463 5462 5461 5460 5459 5458 5456 5455 5453 5451 5449 5447 5444 5442 5439 5436 5433 5430 5428 5425 5422 5419 5416 5413 5410 5408 5405 5402 5400 5397 5395 5392 5390 5387 5385 5383 5381 5380 5378 5376 5375
5459 5458 5457 5456 5455 5454 5453 5451 5450 5449 5447 5446 5444 5442 5440 5437 5434 5432 5429 5426 5423 5421 5418 5415 5412 5409 5406 5403 5401 5398 5395 5392 5390 5387 5385 5382 5380 5378 5376 5375 5373 5371 5370 5368
5452 5451 5450 5449 5448 5447 5446 5444 5443 5442 5440 5438 5436 5434 5432 5430 5427 5424 5422 5419 5416 5414 5411 5408 5405 5402 5399 5397 5394 5391 5388 5385 5382 5380 5377 5375 5373 5371 5369 5368 5366 5365 5364 5362
5446 5445 5444 5443 5442 5440 5439 5438 5436 5434 5432 5430 5428 5426 5424 5422 5420 5417 5414 5412 5409 5407 5404 5401 5398 5395 5393 5390 5387 5384 5381 5378 5375 5373 5370 5368 5366 5364 5362 5361 5359 5358 5357 5356
5439 5439 5438 5436 5435 5433 5432 5430 5429 5427 5425 5423 5421 5419 5416 5414 5412 5409 5407 5405 5402 5400 5397 5394 5392 5389 5386 5383 5380 5377 5374 5371 5369 5366 5363 5361 5359 5357 5355 5354 5352 5351 5350 5349
5433 5432 5431 5429 5428 5426 5425 5423 5421 5419 5417 5415 5413 5411 5409 5407 5404 5402 5400 5397 5395 5393 5390 5388 5385 5382 5380 5377 5374 5371 5368 5365 5362 5360 5357 5355 5352 5350 5348 5347 5345 5344 5343 5342